| time (UTC) | temp F | wind direction | speed MPH | gust MPH | rain 1hr in | rain 24hr in | rain mn in | humidity % | barometer mb |
| 20260503183951 | 52 | 284 | 4.0 | 6.0 | 0.00 | 0.00 | 0.00 | 43 | 1002.9 |
| 20260503183448 | 51 | 284 | 1.0 | 4.0 | 0.00 | 0.00 | 0.00 | 48 | 1002.8 |
| 20260503182944 | 52 | 284 | 4.0 | 6.0 | 0.00 | 0.00 | 0.00 | 46 | 1002.9 |
| 20260503182443 | 52 | 284 | 2.0 | 6.0 | 0.00 | 0.00 | 0.00 | 49 | 1002.8 |
| 20260503181941 | 51 | 284 | 2.0 | 6.0 | 0.00 | 0.00 | 0.00 | 48 | 1002.7 |
| 20260503181438 | 51 | 284 | 2.0 | 7.0 | 0.00 | 0.00 | 0.00 | 47 | 1002.6 |
| 20260503180933 | 51 | 284 | 4.0 | 10.0 | 0.00 | 0.00 | 0.00 | 48 | 1002.6 |
| 20260503180432 | 51 | 284 | 4.0 | 9.0 | 0.00 | 0.00 | 0.00 | 48 | 1002.8 |
| 20260503175928 | 51 | 284 | 3.0 | 6.0 | 0.00 | 0.00 | 0.00 | 50 | 1002.5 |
| 20260503175427 | 50 | 284 | 2.0 | 4.0 | 0.00 | 0.00 | 0.00 | 52 | 1003.0 |
| 20260503174922 | 51 | 284 | 4.0 | 4.0 | 0.00 | 0.00 | 0.00 | 49 | 1002.8 |
| 20260503174420 | 50 | 284 | 3.0 | 6.0 | 0.00 | 0.00 | 0.00 | 53 | 1002.7 |
| 20260503173914 | 49 | 284 | 2.0 | 3.0 | 0.00 | 0.00 | 0.00 | 54 | 1002.6 |
| 20260503173411 | 49 | 284 | 2.0 | 9.0 | 0.00 | 0.00 | 0.00 | 55 | 1002.7 |
| 20260503172908 | 50 | 284 | 6.0 | 8.0 | 0.00 | 0.00 | 0.00 | 52 | 1002.8 |
| 20260503172405 | 49 | 284 | 4.0 | 8.0 | 0.00 | 0.00 | 0.00 | 56 | 1002.7 |
| 20260503171901 | 48 | 284 | 4.0 | 6.0 | 0.00 | 0.00 | 0.00 | 56 | 1002.6 |
| 20260503171358 | 49 | 284 | 2.0 | 3.0 | 0.00 | 0.00 | 0.00 | 56 | 1002.9 |
| 20260503170855 | 49 | 284 | 1.0 | 8.0 | 0.00 | 0.00 | 0.00 | 57 | 1002.6 |
| 20260503170352 | 48 | 250 | 2.0 | 4.0 | 0.00 | 0.00 | 0.00 | 58 | 1002.9 |
| 20260503150744 | 43 | 250 | 1.0 | 2.0 | 0.00 | 0.00 | 0.00 | 80 | 1003.9 |
| 20260503150240 | 43 | 250 | 3.0 | 4.0 | 0.00 | 0.00 | 0.00 | 81 | 1003.9 |
| 20260503140204 | 42 | 250 | 1.0 | 2.0 | 0.00 | 0.00 | 0.00 | 84 | 1004.4 |
| 20260503131134 | 41 | 250 | 0.0 | 2.0 | 0.00 | 0.00 | 0.00 | 87 | 1004.9 |
| 20260503130632 | 41 | 250 | 1.0 | 2.0 | 0.00 | 0.00 | 0.00 | 88 | 1004.8 |
| 20260503130129 | 41 | 250 | 0.0 | 3.0 | 0.00 | 0.00 | 0.00 | 87 | 1004.8 |
| 20260503110522 | 40 | 250 | 0.0 | 2.0 | 0.00 | 0.00 | 0.00 | 95 | 1005.4 |
| 20260503090409 | 38 | 250 | 0.0 | 0.0 | 0.00 | 0.00 | 0.00 | 95 | 1006.0 |
| 20260503081335 | 39 | 250 | 0.0 | 0.0 | 0.00 | 0.00 | 0.00 | 95 | 1006.4 |
| 20260503080832 | 39 | 250 | 0.0 | 0.0 | 0.00 | 0.00 | 0.00 | 95 | 1006.3 |
| 20260503080329 | 39 | 250 | 0.0 | 0.0 | 0.00 | 0.00 | 0.00 | 95 | 1006.4 |
| 20260503072759 | 40 | 250 | 0.0 | 0.0 | 0.00 | 0.00 | 0.00 | 95 | 1006.5 |
| 20260503072256 | 40 | 250 | 0.0 | 0.0 | 0.00 | 0.00 | 0.00 | 95 | 1006.2 |
| 20260503071752 | 40 | 250 | 0.0 | 0.0 | 0.00 | 0.00 | 0.00 | 95 | 1006.3 |
| 20260503071250 | 40 | 250 | 0.0 | 0.0 | 0.00 | 0.00 | 0.00 | 95 | 1006.4 |
| 20260503070746 | 40 | 250 | 0.0 | 1.0 | 0.00 | 0.00 | 0.00 | 95 | 1006.7 |
| 20260503070244 | 40 | 250 | 0.0 | 0.0 | 0.00 | 0.00 | 0.00 | 95 | 1006.7 |
| 20260503060209 | 41 | 250 | 0.0 | 0.0 | 0.00 | 0.00 | 0.00 | 95 | 1007.4 |
| 20260503054655 | 41 | 250 | 0.0 | 0.0 | 0.00 | 0.00 | 0.00 | 95 | 1007.7 |
| 20260503054153 | 41 | 250 | 0.0 | 0.0 | 0.00 | 0.00 | 0.00 | 95 | 1007.5 |
| 20260503053651 | 41 | 250 | 0.0 | 0.0 | 0.00 | 0.00 | 0.00 | 95 | 1007.9 |
| 20260503053149 | 41 | 250 | 0.0 | 0.0 | 0.00 | 0.00 | 0.00 | 95 | 1007.6 |
| 20260503052645 | 41 | 250 | 0.0 | 0.0 | 0.00 | 0.00 | 0.00 | 95 | 1007.6 |
| 20260503052141 | 41 | 250 | 0.0 | 0.0 | 0.00 | 0.00 | 0.00 | 95 | 1007.9 |
| 20260503051637 | 41 | 250 | 0.0 | 0.0 | 0.00 | 0.00 | 0.00 | 95 | 1008.1 |
| 20260503051135 | 41 | 250 | 0.0 | 0.0 | 0.00 | 0.00 | 0.00 | 95 | 1008.2 |
| 20260503050631 | 41 | 250 | 0.0 | 0.0 | 0.00 | 0.00 | 0.00 | 95 | 1008.2 |
| 20260503050128 | 41 | 250 | 0.0 | 1.0 | 0.00 | 0.00 | 0.00 | 95 | 1008.2 |
| 20260503045626 | 41 | 250 | 0.0 | 0.0 | 0.00 | 0.00 | 0.00 | 95 | 1008.7 |
| 20260503045123 | 41 | 250 | 0.0 | 0.0 | 0.00 | 0.00 | 0.00 | 95 | 1008.1 |
| 20260503044619 | 41 | 250 | 0.0 | 0.0 | 0.00 | 0.00 | 0.00 | 95 | 1008.3 |
| 20260503044117 | 41 | 250 | 0.0 | 0.0 | 0.00 | 0.00 | 0.00 | 95 | 1008.1 |
| 20260503043613 | 41 | 250 | 0.0 | 0.0 | 0.00 | 0.00 | 0.00 | 95 | 1008.5 |
| 20260503043110 | 41 | 250 | 0.0 | 0.0 | 0.00 | 0.00 | 0.00 | 95 | 1008.5 |
| 20260503042607 | 41 | 250 | 0.0 | 0.0 | 0.00 | 0.00 | 0.00 | 95 | 1008.4 |
| 20260503042103 | 41 | 250 | 0.0 | 0.0 | 0.00 | 0.00 | 0.00 | 95 | 1008.2 |
| 20260503041559 | 42 | 250 | 0.0 | 2.0 | 0.00 | 0.00 | 0.00 | 95 | 1008.5 |
| 20260503041057 | 42 | 250 | 0.0 | 0.0 | 0.00 | 0.00 | 0.00 | 95 | 1008.5 |
| 20260503040554 | 42 | 250 | 0.0 | 0.0 | 0.00 | 0.00 | 0.00 | 95 | 1008.5 |
| 20260503040052 | 42 | 250 | 0.0 | 0.0 | 0.00 | 0.14 | 0.14 | 95 | 1008.4 |
| 20260503035548 | 42 | 250 | 0.0 | 0.0 | 0.00 | 0.14 | 0.14 | 95 | 1008.5 |
| 20260503035046 | 42 | 250 | 0.0 | 0.0 | 0.00 | 0.14 | 0.14 | 95 | 1008.4 |
| 20260503034543 | 42 | 250 | 0.0 | 0.0 | 0.00 | 0.14 | 0.14 | 95 | 1008.7 |
| 20260503034040 | 42 | 250 | 0.0 | 0.0 | 0.00 | 0.14 | 0.14 | 95 | 1008.7 |
| 20260503033537 | 42 | 250 | 0.0 | 0.0 | 0.00 | 0.14 | 0.14 | 95 | 1008.9 |
| 20260503033035 | 42 | 250 | 0.0 | 0.0 | 0.00 | 0.14 | 0.14 | 95 | 1008.8 |
| 20260503032533 | 42 | 250 | 0.0 | 0.0 | 0.00 | 0.14 | 0.14 | 95 | 1008.7 |
| 20260503032031 | 42 | 250 | 0.0 | 0.0 | 0.00 | 0.14 | 0.14 | 95 | 1008.8 |
| 20260503031529 | 42 | 250 | 0.0 | 0.0 | 0.05 | 0.14 | 0.14 | 95 | 1008.9 |
| 20260503031026 | 42 | 250 | 0.0 | 0.0 | 0.00 | 0.13 | 0.13 | 95 | 1008.8 |
| 20260503030522 | 42 | 250 | 0.0 | 0.0 | 0.00 | 0.13 | 0.13 | 95 | 1008.9 |
| 20260503030019 | 42 | 250 | 0.0 | 0.0 | 0.00 | 0.13 | 0.13 | 95 | 1008.9 |
| 20260503025515 | 42 | 250 | 0.0 | 0.0 | 0.00 | 0.13 | 0.13 | 95 | 1009.1 |
| 20260503025014 | 42 | 250 | 0.0 | 0.0 | 0.00 | 0.13 | 0.13 | 95 | 1008.8 |
| 20260503024509 | 42 | 250 | 0.0 | 0.0 | 0.00 | 0.13 | 0.13 | 95 | 1009.0 |
| 20260503024007 | 41 | 250 | 0.0 | 0.0 | 0.00 | 0.13 | 0.13 | 95 | 1008.8 |
| 20260503023503 | 41 | 250 | 0.0 | 0.0 | 0.00 | 0.13 | 0.13 | 95 | 1009.0 |
| 20260503023001 | 41 | 250 | 0.0 | 0.0 | 0.00 | 0.13 | 0.13 | 95 | 1009.0 |
| 20260503022456 | 41 | 250 | 0.0 | 0.0 | 0.00 | 0.13 | 0.13 | 95 | 1008.9 |
| 20260503021951 | 41 | 250 | 0.0 | 0.0 | 0.00 | 0.13 | 0.13 | 95 | 1009.1 |
| 20260503021448 | 42 | 250 | 0.0 | 0.0 | 0.00 | 0.13 | 0.13 | 95 | 1009.0 |
| 20260503020946 | 42 | 250 | 0.0 | 0.0 | 0.00 | 0.13 | 0.13 | 95 | 1009.2 |
| 20260503020443 | 42 | 250 | 0.0 | 0.0 | 0.00 | 0.13 | 0.13 | 95 | 1009.3 |
| 20260503015939 | 42 | 250 | 0.0 | 0.0 | 0.00 | 0.13 | 0.13 | 95 | 1009.2 |
| 20260503015436 | 42 | 250 | 0.0 | 0.0 | 0.00 | 0.13 | 0.13 | 95 | 1009.4 |
| 20260503014932 | 42 | 250 | 0.0 | 0.0 | 0.00 | 0.13 | 0.13 | 95 | 1009.5 |
| 20260503014429 | 42 | 250 | 0.0 | 0.0 | 0.00 | 0.13 | 0.13 | 95 | 1009.4 |
| 20260503013928 | 42 | 250 | 0.0 | 0.0 | 0.00 | 0.13 | 0.13 | 95 | 1009.5 |
| 20260503013424 | 42 | 250 | 0.0 | 0.0 | 0.00 | 0.13 | 0.13 | 95 | 1009.4 |
| 20260503012922 | 42 | 250 | 1.0 | 1.0 | 0.00 | 0.13 | 0.13 | 95 | 1009.4 |
| 20260503012420 | 42 | 250 | 0.0 | 0.0 | 0.07 | 0.13 | 0.13 | 95 | 1009.5 |
| 20260503011915 | 42 | 250 | 0.0 | 0.0 | 0.07 | 0.13 | 0.13 | 95 | 1009.7 |
| 20260503011412 | 42 | 250 | 0.0 | 0.0 | 0.00 | 0.12 | 0.12 | 95 | 1009.6 |
| 20260503010909 | 42 | 250 | 0.0 | 0.0 | 0.00 | 0.12 | 0.12 | 95 | 1009.7 |
| 20260503010406 | 42 | 250 | 0.0 | 0.0 | 0.00 | 0.12 | 0.12 | 95 | 1009.7 |
| 20260503005903 | 43 | 250 | 0.0 | 0.0 | 0.00 | 0.12 | 0.12 | 95 | 1009.7 |
| 20260503005401 | 43 | 250 | 0.0 | 0.0 | 0.05 | 0.12 | 0.12 | 95 | 1009.6 |
| 20260503004856 | 43 | 250 | 0.0 | 0.0 | 0.05 | 0.12 | 0.12 | 95 | 1009.8 |
| 20260503004354 | 43 | 250 | 0.0 | 0.0 | 0.00 | 0.11 | 0.11 | 95 | 1009.8 |
| 20260503003852 | 43 | 250 | 0.0 | 0.0 | 0.00 | 0.11 | 0.11 | 95 | 1009.6 |
| 20260503003348 | 43 | 250 | 0.0 | 0.0 | 0.00 | 0.11 | 0.11 | 95 | 1009.7 |
| 20260503002845 | 43 | 250 | 0.0 | 0.0 | 0.00 | 0.11 | 0.11 | 95 | 1009.7 |
| 20260503002343 | 43 | 250 | 0.0 | 0.0 | 0.07 | 0.11 | 0.11 | 95 | 1009.5 |
| 20260503001839 | 43 | 250 | 0.0 | 0.0 | 0.07 | 0.11 | 0.11 | 95 | 1009.5 |
| 20260503001335 | 43 | 250 | 0.0 | 0.0 | 0.00 | 0.10 | 0.10 | 95 | 1009.3 |
| 20260503000832 | 43 | 250 | 0.0 | 0.0 | 0.00 | 0.10 | 0.10 | 95 | 1009.1 |
| 20260503000330 | 43 | 250 | 0.0 | 0.0 | 0.00 | 0.10 | 0.10 | 95 | 1009.3 |
| 20260502235827 | 43 | 250 | 0.0 | 0.0 | 0.00 | 0.10 | 0.10 | 95 | 1009.1 |
| 20260502235324 | 43 | 250 | 0.0 | 0.0 | 0.00 | 0.10 | 0.10 | 95 | 1009.4 |
| 20260502234821 | 43 | 250 | 0.0 | 0.0 | 0.00 | 0.10 | 0.10 | 95 | 1009.2 |
| 20260502234318 | 43 | 250 | 0.0 | 0.0 | 0.00 | 0.10 | 0.10 | 95 | 1009.3 |
| 20260502233814 | 43 | 250 | 0.0 | 0.0 | 0.00 | 0.10 | 0.10 | 95 | 1009.4 |
| 20260502233311 | 43 | 250 | 0.0 | 0.0 | 0.00 | 0.10 | 0.10 | 95 | 1009.5 |
| 20260502232808 | 43 | 250 | 0.0 | 0.0 | 0.00 | 0.10 | 0.10 | 95 | 1009.3 |
| 20260502232305 | 43 | 250 | 0.0 | 0.0 | 0.00 | 0.10 | 0.10 | 95 | 1009.0 |
| 20260502231800 | 43 | 250 | 0.0 | 0.0 | 0.00 | 0.10 | 0.10 | 95 | 1009.1 |
| 20260502231258 | 43 | 250 | 0.0 | 0.0 | 0.00 | 0.10 | 0.10 | 95 | 1009.0 |
| 20260502230756 | 43 | 250 | 0.0 | 0.0 | 0.07 | 0.10 | 0.10 | 95 | 1009.0 |
| 20260502230254 | 43 | 250 | 0.0 | 0.0 | 0.07 | 0.10 | 0.10 | 95 | 1009.0 |
| 20260502225750 | 44 | 250 | 0.0 | 1.0 | 0.00 | 0.09 | 0.09 | 95 | 1009.2 |
| 20260502225247 | 44 | 250 | 0.0 | 0.0 | 0.00 | 0.09 | 0.09 | 95 | 1008.8 |
| 20260502224744 | 44 | 250 | 0.0 | 0.0 | 0.00 | 0.09 | 0.09 | 95 | 1009.1 |
| 20260502224241 | 44 | 250 | 0.0 | 0.0 | 0.00 | 0.09 | 0.09 | 95 | 1009.1 |
| 20260502223738 | 44 | 250 | 0.0 | 0.0 | 0.00 | 0.09 | 0.09 | 95 | 1008.9 |
| 20260502223236 | 44 | 250 | 0.0 | 0.0 | 0.00 | 0.09 | 0.09 | 95 | 1009.0 |
| 20260502222734 | 44 | 250 | 0.0 | 0.0 | 0.00 | 0.09 | 0.09 | 95 | 1009.1 |
| 20260502222230 | 44 | 250 | 0.0 | 0.0 | 0.00 | 0.09 | 0.09 | 95 | 1009.0 |
| 20260502221726 | 44 | 250 | 0.0 | 0.0 | 0.00 | 0.09 | 0.09 | 95 | 1008.9 |
| 20260502221223 | 43 | 250 | 0.0 | 0.0 | 0.05 | 0.09 | 0.09 | 95 | 1009.1 |
| 20260502220719 | 44 | 250 | 0.0 | 0.0 | 0.07 | 0.08 | 0.08 | 95 | 1009.0 |
| 20260502220215 | 43 | 250 | 0.0 | 0.0 | 0.07 | 0.08 | 0.08 | 95 | 1009.2 |
| 20260502215713 | 44 | 250 | 0.0 | 0.0 | 0.00 | 0.07 | 0.07 | 95 | 1009.2 |
| 20260502215209 | 44 | 250 | 0.0 | 0.0 | 0.05 | 0.07 | 0.07 | 95 | 1009.2 |
| 20260502214707 | 44 | 250 | 0.0 | 0.0 | 0.05 | 0.07 | 0.07 | 94 | 1009.5 |
| 20260502214204 | 44 | 250 | 0.0 | 0.0 | 0.00 | 0.06 | 0.06 | 94 | 1009.4 |
| 20260502213701 | 44 | 250 | 0.0 | 0.0 | 0.00 | 0.06 | 0.06 | 94 | 1009.3 |
| 20260502213158 | 44 | 250 | 0.0 | 0.0 | 0.00 | 0.06 | 0.06 | 94 | 1009.1 |
| 20260502212656 | 44 | 250 | 0.0 | 0.0 | 0.00 | 0.06 | 0.06 | 94 | 1009.2 |
| 20260502212155 | 44 | 250 | 0.0 | 0.0 | 0.00 | 0.06 | 0.06 | 94 | 1009.2 |
| 20260502211650 | 44 | 250 | 0.0 | 0.0 | 0.00 | 0.06 | 0.06 | 94 | 1009.4 |
| 20260502211147 | 44 | 250 | 0.0 | 0.0 | 0.07 | 0.06 | 0.06 | 94 | 1009.4 |
| 20260502210644 | 44 | 250 | 0.0 | 0.0 | 0.07 | 0.06 | 0.06 | 94 | 1009.5 |
| 20260502210141 | 44 | 250 | 0.0 | 0.0 | 0.00 | 0.05 | 0.05 | 94 | 1009.3 |
| 20260502205638 | 44 | 250 | 0.0 | 0.0 | 0.00 | 0.05 | 0.05 | 94 | 1009.4 |
| 20260502205135 | 44 | 250 | 0.0 | 0.0 | 0.00 | 0.05 | 0.05 | 94 | 1009.4 |
| 20260502204632 | 44 | 250 | 0.0 | 0.0 | 0.00 | 0.05 | 0.05 | 94 | 1009.4 |
| 20260502204130 | 44 | 250 | 0.0 | 0.0 | 0.00 | 0.05 | 0.05 | 94 | 1009.3 |
| 20260502203626 | 44 | 250 | 0.0 | 0.0 | 0.05 | 0.05 | 0.05 | 94 | 1009.3 |
| 20260502203124 | 44 | 250 | 0.0 | 0.0 | 0.05 | 0.05 | 0.05 | 94 | 1009.3 |
| 20260502202619 | 44 | 250 | 0.0 | 0.0 | 0.00 | 0.04 | 0.04 | 94 | 1009.3 |
| 20260502202117 | 44 | 250 | 0.0 | 0.0 | 0.00 | 0.04 | 0.04 | 94 | 1009.3 |
| 20260502201613 | 44 | 250 | 0.0 | 0.0 | 0.00 | 0.04 | 0.04 | 94 | 1009.3 |
| 20260502201104 | 44 | 250 | 0.0 | 0.0 | 0.00 | 0.04 | 0.04 | 93 | 1009.3 |
| 20260502200600 | 43 | 250 | 0.0 | 0.0 | 0.00 | 0.04 | 0.04 | 93 | 1009.3 |
| 20260502200058 | 44 | 250 | 0.0 | 0.0 | 0.00 | 0.04 | 0.04 | 93 | 1009.4 |
| 20260502195556 | 43 | 250 | 0.0 | 0.0 | 0.00 | 0.04 | 0.04 | 92 | 1009.3 |
| 20260502195051 | 44 | 250 | 0.0 | 0.0 | 0.07 | 0.04 | 0.04 | 92 | 1009.5 |
| 20260502194548 | 44 | 250 | 0.0 | 0.0 | 0.07 | 0.04 | 0.04 | 91 | 1009.4 |
| 20260502194044 | 44 | 250 | 0.0 | 0.0 | 0.00 | 0.03 | 0.03 | 91 | 1009.6 |
| 20260502193542 | 44 | 250 | 0.0 | 0.0 | 0.00 | 0.03 | 0.03 | 90 | 1009.6 |
| 20260502193039 | 44 | 250 | 0.0 | 0.0 | 0.00 | 0.03 | 0.03 | 90 | 1009.7 |
| 20260502192534 | 44 | 250 | 0.0 | 1.0 | 0.00 | 0.03 | 0.03 | 89 | 1009.8 |
| 20260502192032 | 44 | 250 | 0.0 | 0.0 | 0.00 | 0.03 | 0.03 | 89 | 1009.7 |
| 20260502191529 | 45 | 250 | 0.0 | 0.0 | 0.00 | 0.03 | 0.03 | 88 | 1009.7 |
| 20260502191027 | 45 | 250 | 0.0 | 0.0 | 0.00 | 0.03 | 0.03 | 88 | 1009.6 |
| 20260502190524 | 45 | 250 | 0.0 | 0.0 | 0.00 | 0.03 | 0.03 | 88 | 1010.0 |
| 20260502190021 | 44 | 250 | 0.0 | 0.0 | 0.00 | 0.03 | 0.03 | 88 | 1009.8 |
| 20260502185515 | 44 | 250 | 0.0 | 0.0 | 0.00 | 0.03 | 0.03 | 88 | 1009.9 |
| 20260502185013 | 44 | 250 | 0.0 | 0.0 | 0.00 | 0.03 | 0.03 | 88 | 1010.1 |
| 20260502184508 | 44 | 250 | 0.0 | 0.0 | 0.00 | 0.03 | 0.03 | 89 | 1010.1 |